www.pogodaiklimat.ru

Погода и климат >> Архив погоды >> Венгрия >> Sarmellek


ПОГОДА в Sarmellek

  • Прогноз погоды в Sarmellek
  • Монитор погоды в Sarmellek
  • Климат города

АРХИВ ПОГОДЫ в Sarmellek

Время (UTC), дата Ветер
(напр.,м/с)
 
Видим.   Явления Облачность Т
(С)
Тd
(С)
f
(%)
Тe
(С)
Тes
(С)
Комфортность P
(гПа)
Po
(гПа)
Тmin
(С)
Tmax
(С)
R
(мм)
R24
(мм)
S
(см)
22 8.12 В 2 н/о н/о +0.1 -0.0 99 -4 -4 1014.2 999.0
23 8.12 ЮВ 3 н/о н/о +0.1 -0.0 99 -5 -5 1013.5 998.3
00 9.12 ЮВ 2 н/о н/о -0.1 -0.2 99 -4 -4 1012.9 997.7
01 9.12 В 2 н/о н/о -0.7 -0.8 99 -5 -5 1012.2 997.0
02 9.12 Ю 3 н/о н/о +0.8 +0.7 99 -4 -4 1010.8 995.7
03 9.12 Ю 4 н/о н/о +0.1 -0.0 99 -6 -6 1009.6 994.5
04 9.12 Ю 4 н/о н/о +1.5 +0.8 95 -4 -4 1009.1 994.1
05 9.12 ЮВ 1 30 км 10/0
[Ac As]
+2.0 +1.3 95 0 0 1008.6 993.6
06 9.12 ЮВ 4 40 км 8/0
[Ac As]
+2.4 +0.8 89 -3 -3 1007.1 992.1 -1.3
07 9.12 ЮВ 4
{7}
50 км 9/0
[Ac As]
+3.1 +0.7 84 -2 -2 1006.4 991.5
08 9.12 Ю 6
{9}
50 км 8/0
[Ac As]
+3.4 +0.6 82 -2 -2 1005.8 990.9
09 9.12 Ю 7 50 км 9/0
[Ac As]
+3.9 +0.8 80 -2 -2 1005.2 990.4
10 9.12 ЮЗ 5 50 км 9/4 1500 м
[Sc Ac As]
+5.6 +1.0 72 +1 +2 1005.9 991.1
11 9.12 ЮЗ 1 60 км осадки на расстоянии 9/1 1500 м
[Sc Ac As Ci sp]
+6.1 +1.2 71 +5 +7 1005.8 991.1
12 9.12 Ю 3 50 км 9/1 900 м
[Cu hum Ac As Ci sp]
+7.1 +2.2 71 +4 +5 1004.3 989.6
13 9.12 Ю 1 25 км 9/0
[Ac As]
+8.6 +3.4 70 +8 +9 1004.0 989.4
14 9.12 Ю 2 30 км 9/1 600 м
[Cu hum Ac As]
+7.4 +3.6 77 +5 +6 1004.6 989.9
15 9.12 Ю 2 30 км 9/1 600 м
[Sc diur, vesp Ac As]
+5.7 +3.0 83 +3 +3 1004.4 989.7
16 9.12 СВ 2 30 км 9/0
[Ac As]
+4.9 +2.6 85 +2 +2 1004.4 989.6
17 9.12 С 1 н/о н/о +3.8 +2.8 93 +2 +2 1004.6 989.8
18 9.12 В 1 н/о н/о +2.2 +1.3 94 0 0 1005.4 990.5 +8.9
19 9.12 ЮЗ 1 н/о н/о +1.8 +1.5 98 -0 -0 1006.0 991.0
20 9.12 С 1 н/о н/о +0.5 +0.2 98 -2 -2 1006.2 991.2
21 9.12 штиль 0 н/о н/о +0.4 +0.4 100 -1 -1 1006.7 991.6
22 9.12 Ю 1 н/о н/о +1.6 +1.5 99 -0 -0 1006.7 991.7
23 9.12 В 1 н/о н/о +2.3 +2.2 99 0 0 1007.3 992.3
00 10.12 В 1 н/о н/о +2.3 +2.0 98 0 0 1007.7 992.7
01 10.12 В 1 н/о н/о +2.8 +2.4 97 +1 +1 1008.3 993.3
02 10.12 В 2 н/о н/о +3.4 +2.7 95 0 0 1008.8 993.9
03 10.12 СЗ 1 н/о н/о +1.8 +1.7 99 -0 -0 1009.3 994.3
04 10.12 ЮЗ 1 н/о н/о +2.4 +2.3 99 +1 +1 1009.8 994.8
05 10.12 Ю 1 15 км 8/0
[Ac As]
+2.0 +1.9 99 0 0 1010.2 995.2
06 10.12 В 1 10 км {дождь} 9/8 1500 м
[Sc Ac lent]
+1.7 +1.6 99 -0 -0 1011.0 995.9 +0.2 0.1
07 10.12 С 3 15 км осадки на расстоянии 9/9 700 м
[Cu Sc]
+4.2 +2.1 86 +1 +1 1012.3 997.4
08 10.12 З 2 20 км в посл. час ливневой дождь 6/3 1000 м
[Cu Sc Ci sp]
+4.0 +2.7 91 +1 +1 1013.3 998.3
09 10.12 З 4 40 км {ливн. осадки} 8/1 900 м
[Cu Sc Ac lent Cs]
+5.8 +3.6 86 +2 +2 1013.8 998.9
10 10.12 СЗ 3 60 км 6/1 900 м
[Cu Sc Ac lent Ci sp]
+7.2 +3.4 77 +4 +6 1014.3 999.5
11 10.12 СЗ 4
{7}
70 км 9/3 1200 м
[Cu Sc Ac lent Cs]
+9.0 +1.9 61 +6 +7 1013.9 999.2
12 10.12 СЗ 6 >70 км {ливн. осадки} 9/1 1200 м
[Cu Sc Cs]
+9.9 -0.0 50 +7 +7 1014.0 999.3 0.1
13 10.12 З 6
{9}
60 км осадки на расстоянии 9/6 1500 м
[Cu med, cong Cs]
+10.0 -0.5 48 +7 +7 1014.0 999.3
14 10.12 СЗ 6 40 км осадки на расстоянии 9/6 1500 м
[Cu Sc Ac lent Cs]
+9.0 -0.9 50 +6 +6 1014.8 1000.1
15 10.12 С 4
{11}
50 км 6/3 1500 м
[Sc diur, vesp Ac lent Ci sp]
+6.0 +0.5 68 +2 +2 1015.6 1000.7
16 10.12 СЗ 3 70 км 6/1 1500 м
[Sc diur, vesp Ac trans Ci sp]
+2.8 +0.2 83 -1 -1 1016.1 1001.0
17 10.12 З 2 н/о н/о +2.9 +0.1 82 -0 -0 1016.0 1000.9
18 10.12 З 2 н/о н/о +3.4 -0.2 77 +1 +1 1016.3 1001.3 +10.1 0.1
19 10.12 СЗ 4 н/о н/о +3.5 -0.7 74 -1 -1 1016.9 1001.9
20 10.12 СЗ 3 н/о н/о +2.6 -1.2 76 -1 -1 1016.8 1001.7
21 10.12 З 2 н/о н/о +1.9 -1.2 80 -1 -1 1016.7 1001.6
22 10.12 З 2 н/о н/о +2.1 -1.3 78 -1 -1 1016.6 1001.5
23 10.12 З 3 н/о н/о +1.6 -1.8 78 -3 -3 1016.4 1001.3
00 11.12 СЗ 3 н/о н/о +0.1 -2.6 82 -4 -4 1016.4 1001.2
01 11.12 З 1 н/о н/о -1.2 -2.9 88 -3 -3 1016.9 1001.6
02 11.12 С 3 н/о н/о +1.0 -0.9 87 -4 -4 1017.4 1002.2
03 11.12 ЮЗ 3 н/о н/о +0.8 -0.8 89 -4 -4 1016.9 1001.7
04 11.12 З 2 н/о н/о +0.4 -1.5 87 -3 -3 1016.8 1001.6
05 11.12 З 1 40 км 4/0
[Ac As]
+0.6 -1.5 86 -1 -1 1016.7 1001.5
06 11.12 СЗ 1 30 км {снег, дождь} 6/1 1500 м
[Sc Ac lent Cs]
-0.1 -1.7 89 -2 -2 1016.9 1001.7 0.1
07 11.12 В 1 25 км 8/1 1500 м
[Sc Ac As]
-2.3 -2.6 98 -5 -5 1017.3 1001.9
08 11.12 ЮВ 1 20 км 9/0
[Ac As]
-0.7 -1.0 98 -3 -3 1017.2 1001.9
09 11.12 В 1 20 км 9/5 600 м
[Frnb Ac As]
+0.2 -0.4 96 -2 -2 1017.2 1002.0
10 11.12 С 1 20 км 9/6 600 м
[Frnb Ac As]
+1.5 +0.6 94 -0 0 1017.5 1002.3
11 11.12 штиль 0 25 км в посл. час дождь 9/4 600 м
[Frnb Ac As]
+2.6 +0.7 87 +2 +2 1017.3 1002.2
12 11.12 Ю 2 25 км {дождь} 9/9 900 м
[Sc]
+3.7 +1.3 84 +1 +1 1016.8 1001.8
13 11.12 ЮЗ 1 30 км 9/0
[Ac As]
+4.8 +0.2 72 +4 +4 1016.6 1001.6
14 11.12 ЮВ 1 40 км 9/4 480 м
[Cu med, cong Ac As]
+4.8 0.0 71 +4 +4 1016.9 1001.9
15 11.12 Ю 1 30 км 8/4 600 м
[Sc diur, vesp Ac As]
+4.0 +0.5 78 +3 +3 1017.2 1002.2
16 11.12 Ю 2 15 км 9/0
[Ac As]
+3.1 +0.2 81 0 0 1017.1 1002.0
17 11.12 СЗ 1 н/о н/о +1.7 -0.4 86 -0 -0 1017.4 1002.3
18 11.12 штиль 0 н/о н/о +1.2 -0.3 90 0 0 1017.8 1002.6 +5.0
19 11.12 В 1 н/о н/о +1.7 -0.5 85 0 0 1018.1 1002.9
20 11.12 Ю 1 н/о н/о +1.4 -0.2 89 -1 -1 1018.0 1002.8
21 11.12 ЮВ 1 н/о н/о +1.5 -0.1 89 -0 -0 1018.1 1002.9
22 11.12 ЮВ 1 н/о н/о +0.8 -0.2 93 -1 -1 1018.0 1002.8
23 11.12 ЮЗ 2 н/о н/о +2.4 -1.2 77 -1 -1 1017.8 1002.7
00 12.12 СЗ 1 н/о н/о +3.1 -3.3 63 +2 +2 1017.8 1002.7
01 12.12 Ю 1 н/о н/о +1.3 -1.4 82 -0 -0 1017.9 1002.7
02 12.12 З 1 н/о н/о +3.2 -4.0 59 +2 +2 1017.8 1002.7
03 12.12 С 1 н/о н/о +1.1 -1.6 82 -1 -1 1018.2 1003.0
04 12.12 СВ 1 н/о н/о +1.5 -2.4 75 -0 -0 1018.2 1003.0
05 12.12 СЗ 1 30 км 10/8 1380 м
[Sc Ac As]
+1.5 -2.1 77 -0 -0 1018.5 1003.3
06 12.12 С 2 30 км 9/8 1300 м
[Sc Ac As]
+1.0 -1.1 86 -2 -2 1018.9 1003.7 +0.5
07 12.12 СЗ 2 30 км слабый дождь 9/6 1200 м
[Sc Ac As Ci sp]
+1.0 -0.2 92 -3 -3 1019.5 1004.3
08 12.12 С 1 25 км слабый дождь 9/9 1000 м
[Sc]
+1.8 +1.2 96 -0 0 1019.7 1004.5
09 12.12 СЗ 2 40 км слабый дождь 9/8 1000 м
[Sc Ci sp]
+2.8 +1.9 94 -1 -0 1020.0 1004.9
10 12.12 СЗ 4
{7}
50 км в посл. час дождь 6/5 400 м
[Cu Sc Ac lent Ci sp]
+4.8 +1.8 81 +1 +1 1019.7 1004.7
11 12.12 СЗ 7
{10}
>70 км 9/8 450 м
[Cu Sc Ci sp]
+4.8 +1.3 78 -1 -1 1019.8 1004.8
12 12.12 СЗ 6 40 км слабый ливневой дождь 9/9 300 м
[Cu Sc]
+4.1 +1.3 82 -1 -1 1020.0 1004.9 0.1
13 12.12 С 3
{9}
40 км в посл. час ливневой дождь 9/8 300 м
[Cu Sc Ac cuf Ci sp]
+3.7 +2.1 89 -0 0 1020.3 1005.2
14 12.12 С 5 40 км 8/6 300 м
[Cu Sc Ac cuf Ci sp]
+3.1 +1.0 86 -2 -2 1020.6 1005.5
15 12.12 С 3 40 км {ливн. осадки} 6/3 300 м
[Cu Sc Ac cuf Ci sp]
+2.6 +0.3 85 -2 -2 1021.0 1005.8
16 12.12 СЗ 2 40 км 4/1 700 м
[Sc Ac lent Ci sp]
+0.5 -0.9 90 -3 -3 1021.2 1005.9
17 12.12 З 1 н/о н/о -0.6 -1.0 97 -3 -3 1021.5 1006.2
18 12.12 СЗ 2 н/о н/о 0.0 -0.3 98 -4 -4 1021.7 1006.4 +5.3 0.1
19 12.12 СЗ 3 н/о н/о -0.4 -0.8 97 -5 -5 1021.8 1006.5
20 12.12 З 1 н/о н/о -0.7 -0.7 100 -3 -3 1021.9 1006.6
21 12.12 СЗ 2 н/о н/о -2.4 -2.5 99 -7 -7 1022.2 1006.8
22 12.12 ЮЗ 1 н/о н/о -2.3 -2.4 99 -5 -5 1022.4 1007.0
23 12.12 З 2 н/о н/о -3.7 -3.8 99 -8 -8 1022.7 1007.2
00 13.12 З 2 н/о н/о -1.6 -1.7 99 -6 -6 1022.5 1007.1
01 13.12 штиль 0 н/о н/о -1.0 -1.1 99 -2 -2 1022.5 1007.1
02 13.12 С 1 н/о н/о -2.6 -2.7 99 -5 -5 1022.4 1006.9
03 13.12 Ю 2 н/о н/о -3.0 -3.1 99 -7 -7 1022.5 1007.0
04 13.12 штиль 0 н/о н/о -2.5 -2.6 99 -4 -4 1022.3 1006.8
05 13.12 СЗ 2 100 м переохл. туман ?/? -2.0 -2.1 99 -6 -6 1021.9 1006.5
06 13.12 З 2 100 м переохл. туман ?/? -1.8 -1.9 99 -6 -6 1022.2 1006.8 -4.4
07 13.12 СЗ 2 1200 м в посл. час туман 10/10 120 м
[St]
-1.4 -1.5 99 -6 -6 1022.4 1007.0
08 13.12 штиль 0 5000 м дымка 9/9 300 м
[St]
-1.1 -1.2 99 -3 -2 1022.7 1007.3
09 13.12 С 3 6000 м {туман} 9/9 90 м
[Cu Sc]
-0.4 -0.5 99 -5 -5 1022.5 1007.2
10 13.12 СЗ 1 10 км 9/9 90 м
[Cu Sc]
+0.1 -0.0 99 -2 -2 1022.2 1006.9
11 13.12 С 1 15 км 9/9 210 м
[Cu Sc]
+0.6 +0.5 99 -2 -1 1021.5 1006.2
12 13.12 С 1 20 км {туман} 9/9 210 м
[Cu Sc]
+1.0 +0.1 94 -1 -1 1021.2 1006.0
13 13.12 СВ 2 25 км 9/9 300 м
[Cu Sc]
+1.1 -0.2 91 -2 -2 1021.1 1005.9
14 13.12 СВ 2 25 км 3/1 300 м
[Cu Sc Ac lent]
+1.2 -0.4 89 -2 -2 1021.0 1005.8
15 13.12 СВ 2 25 км 4/1 300 м
[Cu Sc Ac lent Ci sp]
+0.4 -0.7 92 -3 -3 1021.1 1005.8
16 13.12 В 2 17 км 9/9 1200 м
[Sc]
-0.4 -0.7 98 -4 -4 1021.2 1005.9
17 13.12 СВ 2 н/о н/о -0.6 -0.6 100 -5 -5 1021.2 1005.9
18 13.12 СВ 3 н/о н/о -0.4 -0.5 99 -5 -5 1021.3 1006.0 +1.7
19 13.12 СВ 3 н/о н/о -0.6 -0.9 98 -6 -6 1021.4 1006.1
20 13.12 СВ 3 н/о н/о -0.7 -1.1 97 -6 -6 1021.9 1006.6
21 13.12 СВ 2 н/о н/о -0.7 -1.1 97 -5 -5 1022.0 1006.7
22 13.12 В 2 н/о н/о -1.2 -1.3 99 -5 -5 1022.2 1006.8
23 13.12 В 1 н/о н/о -1.0 -1.1 99 -3 -3 1022.1 1006.7
00 14.12 СВ 3 н/о н/о -0.9 -1.5 96 -6 -6 1021.8 1006.4
01 14.12 СВ 2 н/о н/о -1.0 -1.7 95 -5 -5 1022.0 1006.6
02 14.12 С 1 н/о н/о -1.0 -1.6 96 -3 -3 1021.8 1006.4
03 14.12 В 1 н/о н/о -1.0 -1.3 98 -3 -3 1021.7 1006.3
04 14.12 С 1 н/о н/о -1.0 -1.6 96 -3 -3 1021.5 1006.1
05 14.12 СВ 2 6000 м 10/0
[Ac lent Cs]
-0.8 -1.4 96 -5 -5 1021.6 1006.3
06 14.12 СВ 2 3000 м дымка 10/10 300 м
[St]
-1.0 -1.7 95 -5 -5 1021.9 1006.5
07 14.12 С 2 3000 м дымка 10/10 300 м
[St]
-1.4 -2.1 95 -5 -5 1022.4 1007.0
08 14.12 С 4 3000 м дымка 10/10 300 м
[St]
-1.1 -1.9 94 -7 -7 1022.7 1007.3
09 14.12 С 3 3000 м слабый снег 10/0 300 м
[As op]
-0.7 -1.7 93 -6 -5 1023.0 1007.6
10 14.12 С 4 2000 м слабый снег 10/0 210 м
[As op]
-0.8 -1.5 95 -7 -6 1022.7 1007.3
11 14.12 С 4
{7}
2000 м слабый снег 10/0 210 м
[As op]
-0.8 -1.6 94 -7 -6 1022.6 1007.2
12 14.12 С 4 2000 м слабый снег 10/0
[As op]
-0.6 -1.6 93 -6 -6 1022.2 1006.9
13 14.12 С 3 1500 м слабый снег 10/0 150 м
[As op]
-0.8 -1.1 98 -6 -6 1022.0 1006.6
14 14.12 С 4 1200 м слабый снег 10/0 120 м
[As op]
-1.1 -1.2 99 -7 -7 1021.9 1006.5
15 14.12 С 3 600 м снег 10/0 90 м
[As op]
-1.1 -1.2 99 -6 -6 1022.0 1006.6
16 14.12 С 2 600 м снег 10/0 90 м
[As op]
-1.1 -1.2 99 -5 -5 1022.0 1006.6
17 14.12 С 3 н/о н/о -1.2 -1.3 99 -6 -6 1022.1 1006.7
18 14.12 С 3 н/о н/о -1.3 -1.4 99 -6 -6 1022.3 1006.9 -0.4 0.7
19 14.12 С 4 н/о н/о -1.4 -1.5 99 -7 -7 1022.4 1007.0
20 14.12 С 4 н/о н/о -1.6 -1.7 99 -8 -8 1022.5 1007.1
21 14.12 С 3 н/о н/о -1.6 -1.7 99 -7 -7 1022.5 1007.1
22 14.12 С 4 н/о н/о -1.7 -1.8 99 -8 -8 1022.5 1007.1
23 14.12 С 4
{7}
н/о н/о -1.6 -1.7 99 -8 -8 1022.1 1006.7
00 15.12 С 4
{7}
н/о н/о -1.5 -1.6 99 -8 -8 1021.7 1006.3 0.1
01 15.12 С 5
{7}
н/о н/о -1.3 -1.4 99 -8 -8 1021.6 1006.2
02 15.12 С 4
{7}
н/о н/о -1.3 -1.4 99 -7 -7 1021.9 1006.5
03 15.12 С 4 н/о н/о -1.4 -1.5 99 -7 -7 1021.6 1006.2
04 15.12 С 5
{7}
н/о н/о -1.5 -1.6 99 -8 -8 1021.6 1006.2
05 15.12 С 5
{7}
3500 м слабый снег 10/0 900 м
[As op]
-1.5 -1.6 99 -8 -8 1021.6 1006.2
06 15.12 С 5 3500 м дымка {снег} 10/3 240 м
[Frnb As op]
-1.5 -1.5 100 -8 -8 1021.6 1006.2 -1.7 0.2
07 15.12 С 6
{9}
2000 м слабый снег 10/3 270 м
[Frnb As op]
-1.5 -1.6 99 -9 -9 1021.8 1006.4
08 15.12 С 7
{10}
2000 м слабый снег 10/0 1000 м
[As op]
-1.4 -1.5 99 -9 -9 1021.9 1006.5
09 15.12 С 6 3800 м слабый снег 10/9 300 м
[Sc]
-1.2 -1.5 98 -8 -8 1022.0 1006.6
10 15.12 С 7 4800 м слабый снег 10/10 300 м
[Sc]
-0.8 -2.1 91 -8 -8 1022.1 1006.7
11 15.12 С 7
{12}
3800 м слабый снег 9/9 360 м
[Sc]
-0.7 -1.7 93 -8 -8 1021.3 1006.0
12 15.12 СЗ 6 6000 м слабый снег 9/9 300 м
[Sc]
-0.7 -1.4 95 -8 -8 1020.9 1005.6
13 15.12 С 5 3500 м слабый снег 9/9 300 м
[Sc]
-0.5 -1.1 96 -7 -7 1020.7 1005.4
14 15.12 С 7 8000 м в посл. час снег 9/9 330 м
[Sc]
-0.4 -1.4 93 -8 -8 1020.7 1005.4
15 15.12 С 6 13 км {снег} 10/9 360 м
[Sc]
-0.3 -1.6 91 -7 -7 1020.9 1005.6
16 15.12 С 5
{10}
10 км 10/9 400 м
[Sc]
-0.2 -1.8 89 -6 -6 1021.1 1005.8
17 15.12 С 7
{11}
н/о н/о -0.6 -2.0 90 -8 -8 1021.3 1006.0
18 15.12 С 7 н/о н/о -1.2 -1.9 95 -9 -9 1021.7 1006.3 -0.1
19 15.12 С 7
{10}
н/о н/о -1.3 -2.6 91 -9 -9 1021.8 1006.4
20 15.12 С 7
{10}
н/о н/о -1.1 -3.0 87 -9 -9 1021.7 1006.3
21 15.12 С 4 н/о н/о -1.6 -3.0 90 -7 -7 1021.8 1006.4
22 15.12 СЗ 4
{8}
н/о н/о -2.2 -3.6 90 -8 -8 1021.6 1006.2

 

Местоположение метеостанции Sarmellek (Венгрия): широта 46.68 долгота 17.17 высота над уровнем моря 125 м.

В архиве по умолчанию представлена погода в Sarmellek за последнюю неделю. Архивные данные за месяц целиком и за предыдущие месяцы, начиная с января 2011 года, Вы можете получить, выбрав интересующий диапазон дат из раскрывающегося списка и нажав кнопку "Ввод!".


*Определитесь, кто Вы:
робот инопланетянин человек

Внимание! Время в таблицах - всемирное. Для получения местного времени необходимо прибавить поправку, которая в Sarmellek равна 1 ч.

Смотрите также архив погоды в соседних городах и на ближайших метеорологических станциях:

Погода в Nagykanizsa (Венгрия) (30 км)
Погода в Zalaegerszeg (Венгрия) (35 км)
Погода в Kaposvar (Венгрия) (61 км)
Погода в Veszprem (Венгрия) (66 км)
Погода в Szentgotthard (Венгрия) (70 км)
Погода в Siofok (Венгрия) (72 км)
Погода в Varazdin (Хорватия) (74 км)
Погода в Murska Sobota (Словения) (76 км)
Погода в Szombathely (Венгрия) (77 км)
Погода в Kleinzicken (Австрия) (86 км)

Пояснения к столбцам:

Ветер - указаны скорость ветра в м/с - средняя за 10 мин, порывы в срок и между сроками (в фигурных скобках) и направление, откуда дует ветер: С - северный, СВ - северо-восточный, В - восточный, ЮВ - юго-восточный, Ю - южный, ЮЗ - юго-западный, З - западный, СЗ - северо-западный.
Видимость - горизонтальная дальность видимости в метрах или километрах. При видимости от 1 до 10 км при отсутствии осадков обычно наблюдается дымка, при ухудшении видимости до 1 км и менее - туман. В сухую погоду видимость может ухудшаться дымом, пылью или мглою.
Явления - указаны атмосферные явления, наблюдавшиеся в срок или в последний час перед сроком; фигурными скобками обозначены явления, наблюдавшиеся между сроками (за 1-3 часа до срока); квадратными скобками обозначены град или гололедные отложения с указанием их диаметра в мм.
Облачность - указаны через наклонную черту общая и нижняя облачность в баллах и высота нижней границы облаков в метрах; квадратными скобками обозначены формы облаков: Ci - перистые, Cs - перисто-слоистые, Cc - перисто-кучевые, Ac - высококучевые, As - высокослоистые, Sc - слоисто-кучевые, Ns - слоисто-дождевые, Cu - кучевые, Cb - кучево-дождевые. Подробнее классификацию облаков см. в Атласе облаков (PDF).
T - Температура воздуха - температура, измеренная на высоте 2 м над землей.
Td - Температура точки росы - температура, при понижении до которой содержащийся в воздухе водяной пар достигнет насыщения.
f - Относительная влажность воздуха - влажноcть воздуха, измеренная на высоте 2 м над землей.
Te - Эффективная температура - температура, которую ощущает одетый по сезону человек в тени. Характеристика душности погоды. При расчете учитывается влияние влажности воздуха и скорости ветра на теплоощущения человека.
Tes - Эффективная температура на солнце - температура, которую ощущает человек, с поправкой на солнечный нагрев. Характеристика знойности погоды. Зависит от высоты солнца над горизонтом, облачности и скорости ветра. Ночью, в пасмурную погоду, а также при ветре 12 м/с и более поправка равна нулю.
P - Атмосферное давление - приведенное к уровню моря атмосферное давление.
Po - Атмосферное давление - измеренное на уровне метеостанции атмосферное давление.
Tmin - Минимальная температура - минимум температуры воздуха на высоте 2 м над землей.
Tmax - Максимальная температура - максимум температуры воздуха на высоте 2 м над землей.
R - Количество осадков - Количество выпавших осадков за период времени, мм. При наведении курсора мыши на число - период времени, за который выпало указанное количество осадков.
R24 - Количество осадков - Количество выпавших осадков за 24 часа, мм.
S - Снежный покров - Высота снежного покрова, см. При наведении курсора мыши на число - состояние снежного покрова и степень покрытия местности в баллах.